CAPE
221 194 152 132 91 52 7 5 0 38 815 453 217 69 0 0 0 0 9 85 436 474 432 371 248 288 601 536 429 183 89 26 30
16 10 9 9 7 5 2 0 0 113 448 78 0 0 0 0 0 0 0 197 355 447 433 448 408 187 235 476 341 131 18 20 41
16 9 4 3 2 1 0 0 0 64 1 0 0 0 0 0 0 0 0 423 254 262 340 350 417 300 181 124 203 218 80 29 39
7 4 1 0 0 0 0 0 0 0 0 0 0 2 0 0 0 0 0 337 311 442 435 340 320 313 285 229 119 85 46 31 35
0 0 0 0 0 0 0 0 0 0 0 0 0 0 0 0 0 16 78 276 285 292 291 291 316 358 338 258 203 183 40 36 31
0 0 0 0 0 0 0 0 0 0 0 0 0 0 0 0 0 1 36 82 200 147 198 205 221 190 270 297 289 215 171 95 63
0 0 0 0 0 0 0 0 0 0 0 0 0 0 0 0 0 2 17 34 63 52 34 99 61 71 106 171 239 279 274 237 123
0 0 0 0 0 0 0 0 0 0 0 0 0 0 0 0 0 2 7 22 26 27 28 68 48 64 72 50 70 76 79 85 109
0 0 0 0 0 0 0 0 0 0 0 0 0 0 0 0 0 0 1 11 21 33 64 70 68 55 45 45 40 42 48 34 34
0 0 0 0 0 0 0 0 0 0 0 0 0 0 0 0 0 0 0 0 4 13 23 71 54 38 34 30 32 25 24 25 26
0 0 0 0 0 0 0 0 0 0 0 0 0 0 0 0 0 0 0 0 0 0 8 15 38 37 38 24 20 33 23 20 20
0 0 0 0 0 0 0 0 0 0 0 0 0 0 0 0 0 0 0 0 0 0 0 2 5 23 28 30 19 22 20 20 23
0 0 0 0 0 0 0 0 0 0 0 0 0 0 0 0 0 0 0 0 0 0 0 0 0 11 14 15 14 14 8 8 13
0 0 0 0 0 0 0 0 0 0 0 0 0 0 0 0 0 0 0 0 0 0 0 0 0 1 2 4 6 6 6 9 9
0 0 0 0 0 0 0 0 0 0 0 0 0 0 0 0 0 0 0 0 0 0 0 0 0 0 0 0 0 2 4 6 7
0 0 0 0 0 0 0 0 0 0 0 0 0 0 0 0 0 0 0 0 0 0 0 0 0 0 0 0 0 0 1 7 7
0 0 0 0 0 0 0 0 0 0 0 0 0 0 0 0 0 0 0 0 0 0 0 0 0 0 0 0 0 0 0 2 8
0 0 0 0 0 0 0 0 0 0 0 0 0 0 0 0 0 0 0 0 0 0 0 0 0 0 0 0 0 0 0 0 3
0 0 0 0 0 0 0 0 0 0 0 0 0 0 0 0 0 0 0 0 0 0 0 0 0 0 0 0 0 0 0 0 1
0 0 0 0 0 0 0 0 0 0 0 0 0 0 0 0 0 0 0 0 0 0 0 0 0 0 0 0 0 0 0 0 0
CIN
-0 -0 -0 -1 -20 -42 -1 -0 -0 -4 -0 -4 -13 -27 -0 -0 -0 -0 -50 -17 -0 -0 -0 -0 -0 -0 -0 -0 -4 -11 -34 -3 -1
-0 -0 -63 -88 -0 -0 -0 -0 -0 -2 -0 -10 -0 -0 -0 -0 -0 -0 -0 -5 -0 -0 -0 -0 -0 -0 -0 -0 -0 -17 -0 -1 -3
-0 -0 -0 -0 -0 -0 -0 -0 -0 -2 -0 -0 -0 -0 -0 -0 -0 -0 -0 -4 -1 -0 -0 -0 -0 -2 -0 -0 -0 -1 -22 -3 -2
-0 -0 -0 -0 -0 -0 -0 -0 -0 -0 -0 -0 -0 -0 -0 -0 -0 -0 -0 -1 -0 -0 -0 -0 -0 -0 -0 -0 -0 -4 -3 -6 -9
-0 -0 -0 -0 -0 -0 -0 -0 -0 -0 -0 -0 -0 -0 -0 -0 -0 -6 -1 -0 -0 -0 -0 -0 -0 -0 -0 -0 -0 -1 -2 -6 -7
-0 -0 -0 -0 -0 -0 -0 -0 -0 -0 -0 -0 -0 -0 -0 -0 -0 -0 -0 -2 -0 -1 -1 -0 -0 -3 -0 -0 -0 -0 -1 -28 -20
-0 -0 -0 -0 -0 -0 -0 -0 -0 -0 -0 -0 -0 -0 -0 -0 -0 -0 -0 -0 -0 -0 -0 -0 -0 -0 -0 -17 -7 -7 -1 -1 -21
-0 -0 -0 -0 -0 -0 -0 -0 -0 -0 -0 -0 -0 -0 -0 -0 -0 -0 -0 -0 -0 -0 -0 -0 -0 -1 -0 -0 -2 -4 -6 -5 -57
-0 -0 -0 -0 -0 -0 -0 -0 -0 -0 -0 -0 -0 -0 -0 -0 -0 -0 -0 -0 -0 -0 -0 -0 -0 -0 -0 -0 -0 -0 -0 -0 -0
-0 -0 -0 -0 -0 -0 -0 -0 -0 -0 -0 -0 -0 -0 -0 -0 -0 -0 -0 -0 -0 -0 -0 -0 -0 -0 -0 -0 -0 -0 -0 -0 -0
-0 -0 -0 -0 -0 -0 -0 -0 -0 -0 -0 -0 -0 -0 -0 -0 -0 -0 -0 -0 -0 -0 -0 -0 -0 -0 -0 -0 -0 -0 -0 -0 -0
-0 -0 -0 -0 -0 -0 -0 -0 -0 -0 -0 -0 -0 -0 -0 -0 -0 -0 -0 -0 -0 -0 -0 -0 -0 -0 -0 -0 -0 -0 -0 -0 -0
-0 -0 -0 -0 -0 -0 -0 -0 -0 -0 -0 -0 -0 -0 -0 -0 -0 -0 -0 -0 -0 -0 -0 -0 -0 -0 -0 -0 -0 -0 -0 -0 -0
-0 -0 -0 -0 -0 -0 -0 -0 -0 -0 -0 -0 -0 -0 -0 -0 -0 -0 -0 -0 -0 -0 -0 -0 -0 -0 -0 -0 -0 -0 -0 -0 -0
-0 -0 -0 -0 -0 -0 -0 -0 -0 -0 -0 -0 -0 -0 -0 -0 -0 -0 -0 -0 -0 -0 -0 -0 -0 -0 -0 -0 -0 -0 -0 -0 -0
-0 -0 -0 -0 -0 -0 -0 -0 -0 -0 -0 -0 -0 -0 -0 -0 -0 -0 -0 -0 -0 -0 -0 -0 -0 -0 -0 -0 -0 -0 -0 -0 -0
-0 -0 -0 -0 -0 -0 -0 -0 -0 -0 -0 -0 -0 -0 -0 -0 -0 -0 -0 -0 -0 -0 -0 -0 -0 -0 -0 -0 -0 -0 -0 -0 -0
-0 -0 -0 -0 -0 -0 -0 -0 -0 -0 -0 -0 -0 -0 -0 -0 -0 -0 -0 -0 -0 -0 -0 -0 -0 -0 -0 -0 -0 -0 -0 -0 -0
-0 -0 -0 -0 -0 -0 -0 -0 -0 -0 -0 -0 -0 -0 -0 -0 -0 -0 -0 -0 -0 -0 -0 -0 -0 -0 -0 -0 -0 -0 -0 -0 -0
-0 -0 -0 -0 -0 -0 -0 -0 -0 -0 -0 -0 -0 -0 -0 -0 -0 -0 -0 -0 -0 -0 -0 -0 -0 -0 -0 -0 -0 -0 -0 -0 -0
Wind_Speed
20 21 20 20 20 19 19 20 20 20 20 23 22 21 19 15 10 9 8 6 15 15 14 13 14 15 17 15 17 16 14 14 14
18 18 19 18 19 19 19 21 22 21 22 23 22 21 17 10 9 8 7 6 16 15 14 14 13 14 14 14 13 13 12 11 9
19 19 18 18 18 19 20 21 22 22 23 23 23 21 17 13 9 7 5 11 15 15 15 14 13 11 12 12 11 10 9 9 10
19 19 19 19 18 18 19 21 22 22 22 22 22 21 19 12 8 7 4 12 15 15 14 14 14 13 12 10 8 8 8 7 8
19 19 19 20 20 20 20 20 22 23 22 21 20 20 20 11 10 8 7 18 20 20 18 17 15 14 13 11 10 6 6 5 5
10 17 19 20 21 22 22 21 20 21 22 22 21 19 8 11 10 8 20 21 22 22 20 20 19 18 18 13 11 11 8 4 3
11 13 17 18 20 20 21 21 19 14 7 7 15 8 9 10 10 9 23 21 21 21 20 19 18 19 21 21 17 15 14 13 8
4 4 4 5 12 6 10 9 7 9 8 8 9 9 9 7 8 14 24 24 21 21 20 19 19 21 22 23 22 22 22 19 18
6 5 6 6 5 8 7 6 8 10 10 11 11 11 8 7 6 13 21 22 22 22 22 21 25 26 25 25 27 26 23 22 23
5 5 5 5 5 5 6 7 7 8 10 10 11 10 10 10 6 6 21 21 21 21 21 24 25 25 25 24 24 25 25 25 24
6 6 5 6 5 4 6 6 6 6 7 10 10 9 9 9 8 6 9 21 20 21 21 21 22 23 24 24 23 22 22 23 23
6 6 6 4 4 6 6 6 7 7 7 9 8 8 7 7 8 7 6 7 19 20 21 21 21 20 21 21 21 21 22 21 21
6 6 5 4 4 5 6 5 7 6 5 5 6 5 7 7 7 7 6 6 6 13 20 20 19 19 20 20 20 20 19 19 19
7 6 5 5 5 6 6 6 4 4 5 6 5 5 5 6 6 6 7 8 6 5 16 19 19 17 17 19 19 19 19 18 19
7 6 6 4 6 5 6 8 7 4 4 8 7 5 4 5 5 5 6 5 6 6 6 5 7 16 15 17 17 18 17 17 17
7 6 6 5 7 5 4 3 6 7 4 4 4 5 5 5 4 4 4 5 5 6 6 4 4 5 13 14 16 16 16 16 16
7 6 6 6 7 7 6 5 3 4 4 4 3 2 1 4 4 3 5 6 4 5 6 6 5 4 3 7 13 15 16 15 15
7 6 6 6 5 5 5 5 5 4 4 6 4 3 2 0 1 3 3 4 4 4 5 5 5 4 4 4 6 11 14 15 15
6 7 7 6 4 6 5 5 4 3 3 3 5 5 3 3 1 2 2 2 5 5 4 4 5 5 4 6 6 9 13 13 15
6 6 6 6 4 5 6 5 5 3 3 3 2 4 4 3 2 2 4 3 3 2 3 4 4 5 5 4 4 9 13 14 15
Wind_Direction
81 80 81 78 77 78 77 71 65 65 82 86 83 80 73 65 54 39 28 62 77 82 82 84 77 69 75 77 83 83 78 78 81
86 81 80 85 82 81 77 75 68 72 88 85 81 75 69 64 47 30 25 56 76 76 75 77 79 77 76 75 79 79 77 77 86
93 93 93 86 83 77 76 76 75 76 80 79 77 72 63 56 40 26 9 68 75 75 73 73 71 84 80 79 77 78 77 67 55
94 92 90 87 83 81 78 77 78 79 79 78 76 69 62 58 41 17 6 65 68 71 71 69 68 69 71 73 82 89 82 60 55
91 87 88 87 85 82 82 81 79 79 78 73 71 64 54 51 39 36 57 68 68 69 68 64 65 66 62 62 60 82 89 71 67
70 84 86 84 83 81 80 79 81 76 75 74 69 61 47 55 43 36 46 55 60 61 59 62 63 59 55 51 57 55 53 50 57
79 80 81 80 77 75 75 73 68 68 70 67 66 66 58 52 50 43 49 53 57 53 51 55 60 57 50 51 59 55 51 42 38
73 68 59 60 66 60 60 59 55 61 74 73 78 75 66 58 52 47 53 51 51 51 48 52 61 59 60 55 52 51 50 48 44
70 69 57 58 53 63 56 62 63 58 63 74 81 77 71 64 59 49 56 57 54 51 48 61 65 60 56 51 47 44 46 48 47
85 68 68 60 62 62 60 62 59 57 66 67 75 71 65 62 56 42 58 56 56 53 47 50 61 58 55 50 48 45 42 39 39
89 78 65 65 64 61 74 73 70 65 74 73 74 73 73 67 60 46 38 57 53 52 52 47 50 54 50 46 44 44 42 38 37
95 90 78 59 55 73 71 61 61 68 73 78 78 77 66 68 66 59 51 37 50 51 50 51 42 52 46 46 43 41 40 38 36
89 92 81 72 67 72 69 64 76 70 69 78 76 77 80 70 64 65 60 51 40 40 51 50 44 52 45 42 39 37 35 34 31
95 93 85 76 73 63 75 62 75 73 69 87 73 71 74 74 77 63 60 60 51 41 45 46 48 46 47 39 35 34 33 32 28
98 91 84 73 81 68 66 80 61 71 73 89 72 61 69 66 64 71 69 57 53 49 49 35 26 45 36 36 31 27 28 27 25
95 92 83 69 79 79 65 75 69 48 22 93 49 42 60 68 62 68 68 54 49 52 40 36 37 20 35 27 28 23 20 22 21
97 97 90 82 89 69 59 61 85 70 19 114 89 117 359 27 46 60 76 58 44 36 36 30 35 32 15 25 23 20 14 11 12
95 90 92 82 77 82 68 62 78 111 28 48 128 121 168 303 319 48 63 75 53 32 7 13 5 20 8 25 5 16 7 3 2
94 95 91 88 82 80 79 61 68 91 91 28 39 56 113 130 343 341 9 29 36 10 9 356 346 3 348 338 349 360 354 352 352
97 100 99 94 85 83 85 73 67 56 86 76 69 52 51 58 112 278 321 349 1 1 347 332 333 335 330 313 305 342 341 341 340